This is the latest recevied weather packets stored in our database for station/object K3MV-13. If no packets are shown the sender has not sent any weather packets the latest 10 day(s).
| Time | Temp. | Humidity | Pressure | Rain* | Wind** | Luminosity | Snow |
|---|---|---|---|---|---|---|---|
| 1777729492 | 5° C | 73% | 1014.1 hPa | 0 mm | - | 419 W/m² | - |
| 1777729189 | 5° C | 73% | 1014.3 hPa | 0 mm | - | 148 W/m² | - |
| 1777728885 | 5° C | 74% | 1014.2 hPa | 0 mm | - | 192 W/m² | - |
| 1777728583 | 5° C | 74% | 1014.4 hPa | 0 mm | - | 156 W/m² | - |
| 1777728280 | 4.44° C | 75% | 1014.1 hPa | 0 mm | - | 506 W/m² | - |
| 1777727977 | 4.44° C | 76% | 1014.3 hPa | 0 mm | - | 153 W/m² | - |
| 1777727674 | 4.44° C | 77% | 1014.3 hPa | 0 mm | - | 333 W/m² | - |
| 1777727371 | 4.44° C | 75% | 1014.3 hPa | 0 mm | - | 150 W/m² | - |
| 1777726766 | 4.44° C | 78% | 1014.6 hPa | 0 mm | - | 354 W/m² | - |
| 1777725856 | 3.89° C | 81% | 1014.7 hPa | 0 mm | - | 135 W/m² | - |
| 1777725554 | 3.89° C | 80% | 1014.8 hPa | 0 mm | - | 147 W/m² | - |
| 1777725251 | 3.89° C | 83% | 1014.7 hPa | 0 mm | - | 222 W/m² | - |
| 1777724948 | 3.33° C | 83% | 1014.9 hPa | 0 mm | - | 162 W/m² | - |
| 1777724342 | 2.78° C | 84% | 1014.9 hPa | 0 mm | - | 127 W/m² | - |
| 1777724039 | 2.78° C | 84% | 1014.8 hPa | 0 mm | - | 99 W/m² | - |
| 1777723737 | 2.78° C | 84% | 1014.8 hPa | 0 mm | - | 78 W/m² | - |
| 1777723432 | 2.78° C | 84% | 1015.1 hPa | 0 mm | - | 69 W/m² | - |
| 1777723130 | 2.78° C | 85% | 1014.9 hPa | 0 mm | - | 56 W/m² | - |
| 1777722523 | 2.78° C | 85% | 1014.9 hPa | 0 mm | - | 61 W/m² | - |
| 1777722221 | 2.78° C | 86% | 1015 hPa | 0 mm | - | 59 W/m² | - |
| 1777721917 | 2.78° C | 86% | 1015.2 hPa | 0 mm | - | 40 W/m² | - |
| 1777721615 | 2.22° C | 86% | 1015.1 hPa | 0 mm | - | 40 W/m² | - |
| 1777721313 | 2.22° C | 87% | 1015.2 hPa | 0 mm | - | 33 W/m² | - |
| 1777721010 | 2.22° C | 88% | 1015.1 hPa | 0 mm | - | 35 W/m² | - |
| 1777720708 | 2.22° C | 89% | 1015.3 hPa | 0 mm | - | 24 W/m² | - |
* Rain latest hour (hover to see other rain measurements)
** Current wind speed in m/s (hover to see current wind gust speed)